Time,TemperatureF,DewpointF,PressureIn,WindDirection,WindDirectionDegrees,WindSpeedMPH,WindSpeedGustMPH,Humidity,HourlyPrecipIn,Conditions,Clouds,dailyrainin,SoftwareType,DateUTC
2013-02-15 00:00:00,30.9,29.0,30.06,NNE,22,0.0,1.4,97,0.00,,,0.16,Rainwise IP-100,2013-02-15 05:00:00,
2013-02-15 00:05:00,30.9,31.0,30.05,NNE,22,0.0,0.0,98,0.00,,,0.00,Rainwise IP-100,2013-02-15 05:05:00,
2013-02-15 00:10:00,30.9,31.0,30.06,NNE,22,0.0,2.1,98,0.00,,,0.00,Rainwise IP-100,2013-02-15 05:10:00,
2013-02-15 00:12:00,30.9,31.0,30.06,NNE,22,0.0,2.1,98,0.00,,,0.00,Rainwise IP-100,2013-02-15 05:12:00,
2013-02-15 00:17:00,30.9,31.0,30.06,NNE,22,0.0,1.4,98,0.00,,,0.00,Rainwise IP-100,2013-02-15 05:17:00,
2013-02-15 00:22:00,31.0,31.0,30.06,NNW,337,0.0,1.9,98,0.00,,,0.00,Rainwise IP-100,2013-02-15 05:22:00,
2013-02-15 00:27:00,31.0,31.0,30.05,NNW,337,0.0,1.6,98,0.00,,,0.00,Rainwise IP-100,2013-02-15 05:27:00,
2013-02-15 00:32:00,31.0,31.0,30.06,NNW,337,0.0,1.9,98,0.00,,,0.00,Rainwise IP-100,2013-02-15 05:32:00,
2013-02-15 00:37:00,31.1,31.0,30.06,NNW,337,0.0,3.3,98,0.00,,,0.00,Rainwise IP-100,2013-02-15 05:37:00,
2013-02-15 00:42:00,31.3,31.0,30.06,NNW,337,1.9,2.8,98,0.00,,,0.00,Rainwise IP-100,2013-02-15 05:42:00,
2013-02-15 00:47:00,31.7,32.0,30.05,NNW,337,1.2,3.0,98,0.00,,,0.00,Rainwise IP-100,2013-02-15 05:47:00,
2013-02-15 00:52:00,32.0,32.0,30.06,NW,315,1.2,4.0,98,0.00,,,0.00,Rainwise IP-100,2013-02-15 05:52:00,
2013-02-15 00:57:00,32.1,32.0,30.06,WNW,292,3.7,3.7,98,0.00,,,0.00,Rainwise IP-100,2013-02-15 05:57:00,
2013-02-15 01:02:00,32.3,32.0,30.06,NNW,337,1.4,5.6,98,0.00,,,0.00,Rainwise IP-100,2013-02-15 06:02:00,
2013-02-15 01:07:00,32.4,32.0,30.06,NNW,337,4.2,4.7,98,0.00,,,0.00,Rainwise IP-100,2013-02-15 06:07:00,
2013-02-15 01:12:00,32.4,32.0,30.06,NNW,337,1.2,4.9,98,0.00,,,0.00,Rainwise IP-100,2013-02-15 06:12:00,
2013-02-15 01:17:00,32.3,32.0,30.06,NNE,22,1.2,4.0,98,0.00,,,0.00,Rainwise IP-100,2013-02-15 06:17:00,
2013-02-15 01:22:00,32.4,32.0,30.06,NNW,337,2.6,4.0,98,0.00,,,0.00,Rainwise IP-100,2013-02-15 06:22:00,
2013-02-15 01:27:00,32.3,31.0,30.06,NNW,337,0.0,3.0,97,0.00,,,0.00,Rainwise IP-100,2013-02-15 06:27:00,
2013-02-15 01:32:00,32.3,31.0,30.05,NNW,337,0.0,3.3,97,0.00,,,0.00,Rainwise IP-100,2013-02-15 06:32:00,
2013-02-15 01:37:00,32.2,31.0,30.06,NNW,337,1.2,3.3,97,0.00,,,0.00,Rainwise IP-100,2013-02-15 06:37:00,
2013-02-15 01:42:00,32.2,31.0,30.06,NNE,22,2.3,5.1,97,0.00,,,0.00,Rainwise IP-100,2013-02-15 06:42:00,
2013-02-15 01:47:00,32.1,31.0,30.07,NNW,337,3.3,3.3,97,0.00,,,0.00,Rainwise IP-100,2013-02-15 06:47:00,
2013-02-15 01:52:00,32.1,31.0,30.06,NNW,337,1.2,3.5,97,0.00,,,0.00,Rainwise IP-100,2013-02-15 06:52:00,
2013-02-15 01:57:00,32.2,31.0,30.06,NW,315,2.1,4.4,97,0.00,,,0.00,Rainwise IP-100,2013-02-15 06:57:00,
2013-02-15 02:02:00,32.3,31.0,30.07,WNW,292,1.9,4.9,97,0.00,,,0.00,Rainwise IP-100,2013-02-15 07:02:00,
2013-02-15 02:07:00,32.5,32.0,30.07,NNW,337,1.6,5.4,97,0.00,,,0.00,Rainwise IP-100,2013-02-15 07:07:00,
2013-02-15 02:12:00,32.7,32.0,30.07,NNW,337,2.3,3.7,97,0.00,,,0.00,Rainwise IP-100,2013-02-15 07:12:00,
2013-02-15 02:17:00,32.9,32.0,30.07,NNW,337,2.3,5.1,97,0.00,,,0.00,Rainwise IP-100,2013-02-15 07:17:00,
2013-02-15 02:22:00,33.0,32.0,30.06,NNW,337,2.3,4.4,96,0.00,,,0.00,Rainwise IP-100,2013-02-15 07:22:00,
2013-02-15 02:27:00,33.2,32.0,30.06,NNW,337,1.9,4.7,96,0.00,,,0.00,Rainwise IP-100,2013-02-15 07:27:00,
2013-02-15 02:32:00,33.2,32.0,30.06,North,360,1.4,4.2,96,0.00,,,0.00,Rainwise IP-100,2013-02-15 07:32:00,
2013-02-15 02:37:00,33.1,32.0,30.06,NW,315,1.6,3.3,96,0.00,,,0.00,Rainwise IP-100,2013-02-15 07:37:00,
2013-02-15 02:42:00,33.1,32.0,30.06,NNW,337,1.4,2.8,96,0.00,,,0.00,Rainwise IP-100,2013-02-15 07:42:00,
2013-02-15 02:47:00,33.1,32.0,30.06,WNW,292,2.8,3.5,96,0.00,,,0.00,Rainwise IP-100,2013-02-15 07:47:00,
2013-02-15 02:52:00,33.1,32.0,30.06,NNW,337,2.1,3.5,96,0.00,,,0.00,Rainwise IP-100,2013-02-15 07:52:00,
2013-02-15 02:53:00,33.1,32.0,30.06,NNW,337,1.4,3.5,96,0.00,,,0.00,Rainwise IP-100,2013-02-15 07:53:00,
2013-02-15 02:58:00,33.1,32.0,30.05,NNE,22,1.4,3.3,96,0.00,,,0.00,Rainwise IP-100,2013-02-15 07:58:00,
2013-02-15 02:59:00,33.1,32.0,30.06,North,360,1.6,3.3,96,0.00,,,0.00,Rainwise IP-100,2013-02-15 07:59:00,
2013-02-15 03:04:00,32.9,32.0,30.05,North,360,1.2,2.3,96,0.00,,,0.00,Rainwise IP-100,2013-02-15 08:04:00,
2013-02-15 03:09:00,32.6,32.0,30.05,North,360,0.0,1.9,97,0.00,,,0.00,Rainwise IP-100,2013-02-15 08:09:00,
2013-02-15 03:14:00,32.0,31.0,30.06,North,360,0.0,2.8,96,0.00,,,0.00,Rainwise IP-100,2013-02-15 08:14:00,
2013-02-15 03:19:00,31.7,31.0,30.06,North,360,0.0,1.4,96,0.00,,,0.00,Rainwise IP-100,2013-02-15 08:19:00,
2013-02-15 03:24:00,31.6,31.0,30.05,North,360,0.0,1.4,97,0.00,,,0.00,Rainwise IP-100,2013-02-15 08:24:00,
2013-02-15 03:29:00,31.4,29.0,30.05,North,360,0.0,0.0,97,0.00,,,0.00,Rainwise IP-100,2013-02-15 08:29:00,
2013-02-15 03:34:00,31.2,29.0,30.05,North,360,0.0,1.6,97,0.00,,,0.00,Rainwise IP-100,2013-02-15 08:34:00,
2013-02-15 03:39:00,31.1,29.0,30.05,North,360,0.0,1.4,97,0.00,,,0.00,Rainwise IP-100,2013-02-15 08:39:00,
2013-02-15 03:44:00,31.1,29.0,30.05,North,360,0.0,1.6,97,0.00,,,0.00,Rainwise IP-100,2013-02-15 08:44:00,
2013-02-15 03:49:00,30.8,31.0,30.05,North,360,0.0,0.0,98,0.00,,,0.00,Rainwise IP-100,2013-02-15 08:49:00,
2013-02-15 03:54:00,30.3,31.0,30.06,North,360,0.0,0.0,98,0.00,,,0.00,Rainwise IP-100,2013-02-15 08:54:00,
2013-02-15 03:59:00,29.7,31.0,30.05,North,360,0.0,0.0,98,0.00,,,0.00,Rainwise IP-100,2013-02-15 08:59:00,
2013-02-15 04:04:00,29.1,29.0,30.06,North,360,0.0,0.0,98,0.00,,,0.00,Rainwise IP-100,2013-02-15 09:04:00,
2013-02-15 04:09:00,28.6,29.0,30.06,North,360,0.0,0.0,98,0.00,,,0.00,Rainwise IP-100,2013-02-15 09:09:00,
2013-02-15 04:14:00,28.2,28.0,30.06,North,360,0.0,0.0,98,0.00,,,0.00,Rainwise IP-100,2013-02-15 09:14:00,
2013-02-15 04:19:00,28.5,29.0,30.06,North,360,1.2,1.9,98,0.00,,,0.00,Rainwise IP-100,2013-02-15 09:19:00,
2013-02-15 04:24:00,29.1,29.0,30.06,North,360,0.0,1.4,99,0.00,,,0.00,Rainwise IP-100,2013-02-15 09:24:00,
2013-02-15 04:29:00,29.3,29.0,30.06,North,360,0.0,0.0,99,0.00,,,0.00,Rainwise IP-100,2013-02-15 09:29:00,
2013-02-15 04:34:00,29.1,29.0,30.06,North,360,0.0,0.0,99,0.00,,,0.00,Rainwise IP-100,2013-02-15 09:34:00,
2013-02-15 04:39:00,28.6,29.0,30.06,North,360,0.0,0.0,99,0.00,,,0.00,Rainwise IP-100,2013-02-15 09:39:00,
2013-02-15 04:44:00,28.5,29.0,30.06,North,360,0.0,1.6,99,0.00,,,0.00,Rainwise IP-100,2013-02-15 09:44:00,
2013-02-15 04:49:00,28.6,29.0,30.06,North,360,0.0,1.2,99,0.00,,,0.00,Rainwise IP-100,2013-02-15 09:49:00,
2013-02-15 04:54:00,28.4,28.0,30.06,North,360,0.0,1.6,99,0.00,,,0.00,Rainwise IP-100,2013-02-15 09:54:00,
2013-02-15 04:59:00,28.4,28.0,30.06,North,360,0.0,0.0,99,0.00,,,0.00,Rainwise IP-100,2013-02-15 09:59:00,
2013-02-15 05:04:00,28.7,29.0,30.06,North,360,0.0,0.0,99,0.00,,,0.00,Rainwise IP-100,2013-02-15 10:04:00,
2013-02-15 05:09:00,28.9,29.0,30.07,North,360,0.0,0.0,99,0.00,,,0.00,Rainwise IP-100,2013-02-15 10:09:00,
2013-02-15 05:14:00,28.9,29.0,30.06,North,360,0.0,0.0,99,0.00,,,0.00,Rainwise IP-100,2013-02-15 10:14:00,
2013-02-15 05:19:00,29.1,29.0,30.06,North,360,0.0,1.4,100,0.00,,,0.00,Rainwise IP-100,2013-02-15 10:19:00,
2013-02-15 05:24:00,29.5,31.0,30.06,North,360,1.2,2.1,100,0.00,,,0.00,Rainwise IP-100,2013-02-15 10:24:00,
2013-02-15 05:29:00,30.2,31.0,30.07,North,360,0.0,2.8,100,0.00,,,0.00,Rainwise IP-100,2013-02-15 10:29:00,
2013-02-15 05:34:00,31.0,31.0,30.07,North,360,0.0,1.6,100,0.00,,,0.00,Rainwise IP-100,2013-02-15 10:34:00,
2013-02-15 05:39:00,31.4,31.0,30.07,North,360,0.0,1.4,100,0.00,,,0.00,Rainwise IP-100,2013-02-15 10:39:00,
2013-02-15 05:44:00,31.5,32.0,30.07,North,360,0.0,2.6,100,0.00,,,0.00,Rainwise IP-100,2013-02-15 10:44:00,
2013-02-15 05:49:00,31.5,32.0,30.07,North,360,0.0,2.6,100,0.00,,,0.00,Rainwise IP-100,2013-02-15 10:49:00,
2013-02-15 05:54:00,31.5,32.0,30.06,NW,315,1.2,1.9,100,0.00,,,0.00,Rainwise IP-100,2013-02-15 10:54:00,
2013-02-15 05:59:00,31.8,32.0,30.06,NW,315,2.1,3.5,100,0.00,,,0.00,Rainwise IP-100,2013-02-15 10:59:00,
2013-02-15 06:04:00,32.2,32.0,30.06,NW,315,2.1,4.0,100,0.00,,,0.00,Rainwise IP-100,2013-02-15 11:04:00,
2013-02-15 06:09:00,32.8,33.0,30.06,NW,315,4.0,4.2,100,0.00,,,0.00,Rainwise IP-100,2013-02-15 11:09:00,
2013-02-15 06:14:00,33.4,33.0,30.06,NW,315,3.0,5.8,100,0.00,,,0.00,Rainwise IP-100,2013-02-15 11:14:00,
2013-02-15 06:19:00,33.7,35.0,30.06,NW,315,2.8,5.4,100,0.00,,,0.00,Rainwise IP-100,2013-02-15 11:19:00,
2013-02-15 06:24:00,33.7,35.0,30.07,NNW,337,0.0,3.5,100,0.00,,,0.00,Rainwise IP-100,2013-02-15 11:24:00,
2013-02-15 06:29:00,33.7,35.0,30.06,NNW,337,1.4,3.5,100,0.00,,,0.00,Rainwise IP-100,2013-02-15 11:29:00,
2013-02-15 06:34:00,33.7,35.0,30.07,WNW,292,1.6,4.2,100,0.00,,,0.00,Rainwise IP-100,2013-02-15 11:34:00,
2013-02-15 06:39:00,33.8,35.0,30.07,NNW,337,0.0,5.4,100,0.00,,,0.00,Rainwise IP-100,2013-02-15 11:39:00,
2013-02-15 06:44:00,33.9,35.0,30.07,NNW,337,2.1,3.3,100,0.00,,,0.00,Rainwise IP-100,2013-02-15 11:44:00,
2013-02-15 06:49:00,34.0,35.0,30.07,NW,315,1.2,5.4,100,0.00,,,0.00,Rainwise IP-100,2013-02-15 11:49:00,
2013-02-15 06:54:00,34.1,35.0,30.07,NNW,337,1.9,3.5,100,0.00,,,0.00,Rainwise IP-100,2013-02-15 11:54:00,
2013-02-15 06:59:00,34.2,35.0,30.06,WNW,292,2.3,3.7,100,0.00,,,0.00,Rainwise IP-100,2013-02-15 11:59:00,
2013-02-15 07:04:00,34.3,35.0,30.07,NW,315,2.6,3.0,100,0.00,,,0.00,Rainwise IP-100,2013-02-15 12:04:00,
2013-02-15 07:09:00,34.5,35.0,30.06,NW,315,4.2,4.7,100,0.00,,,0.00,Rainwise IP-100,2013-02-15 12:09:00,
2013-02-15 07:14:00,34.8,35.0,30.06,NNW,337,1.2,5.1,100,0.00,,,0.00,Rainwise IP-100,2013-02-15 12:14:00,
2013-02-15 07:19:00,35.0,35.0,30.07,NNW,337,0.0,4.4,100,0.00,,,0.00,Rainwise IP-100,2013-02-15 12:19:00,
2013-02-15 07:24:00,35.3,35.0,30.06,NW,315,1.2,3.0,100,0.00,,,0.00,Rainwise IP-100,2013-02-15 12:24:00,
2013-02-15 07:29:00,35.5,36.0,30.07,NW,315,0.0,2.3,100,0.00,,,0.00,Rainwise IP-100,2013-02-15 12:29:00,
2013-02-15 07:34:00,35.8,36.0,30.07,NW,315,1.9,5.1,100,0.00,,,0.00,Rainwise IP-100,2013-02-15 12:34:00,
2013-02-15 07:39:00,36.1,36.0,30.07,NNW,337,0.0,2.3,100,0.00,,,0.00,Rainwise IP-100,2013-02-15 12:39:00,
2013-02-15 07:44:00,36.4,36.0,30.07,NW,315,3.5,5.1,100,0.00,,,0.00,Rainwise IP-100,2013-02-15 12:44:00,
2013-02-15 07:49:00,36.8,37.0,30.07,NW,315,0.0,6.3,99,0.00,,,0.00,Rainwise IP-100,2013-02-15 12:49:00,
2013-02-15 07:54:00,37.1,37.0,30.07,NNW,337,5.4,8.2,99,0.00,,,0.00,Rainwise IP-100,2013-02-15 12:54:00,
2013-02-15 07:59:00,37.5,38.0,30.07,WNW,292,3.7,7.9,98,0.00,,,0.00,Rainwise IP-100,2013-02-15 12:59:00,
2013-02-15 08:04:00,38.0,38.0,30.07,NW,315,4.2,8.6,98,0.00,,,0.00,Rainwise IP-100,2013-02-15 13:04:00,
2013-02-15 08:09:00,38.3,37.0,30.07,NNW,337,4.2,7.2,97,0.00,,,0.00,Rainwise IP-100,2013-02-15 13:09:00,
2013-02-15 08:14:00,38.4,37.0,30.08,WNW,292,5.4,9.3,96,0.00,,,0.00,Rainwise IP-100,2013-02-15 13:14:00,
2013-02-15 08:19:00,38.7,38.0,30.08,North,360,5.1,6.1,96,0.00,,,0.00,Rainwise IP-100,2013-02-15 13:19:00,
2013-02-15 08:24:00,39.2,38.0,30.08,WNW,292,4.7,9.3,95,0.00,,,0.00,Rainwise IP-100,2013-02-15 13:24:00,
2013-02-15 08:29:00,39.8,39.0,30.08,NNW,337,2.1,8.2,95,0.00,,,0.00,Rainwise IP-100,2013-02-15 13:29:00,
2013-02-15 08:34:00,40.4,39.0,30.09,WSW,247,0.0,7.7,94,0.00,,,0.00,Rainwise IP-100,2013-02-15 13:34:00,
2013-02-15 08:39:00,40.8,39.0,30.09,NNW,337,2.8,12.1,93,0.00,,,0.00,Rainwise IP-100,2013-02-15 13:39:00,
2013-02-15 08:44:00,41.0,39.0,30.09,NNW,337,2.3,8.4,92,0.00,,,0.00,Rainwise IP-100,2013-02-15 13:44:00,
2013-02-15 08:49:00,41.0,39.0,30.09,NW,315,11.7,11.7,92,0.00,,,0.00,Rainwise IP-100,2013-02-15 13:49:00,
2013-02-15 08:54:00,40.8,39.0,30.09,NNW,337,4.0,11.7,91,0.00,,,0.00,Rainwise IP-100,2013-02-15 13:54:00,
2013-02-15 08:59:00,40.9,39.0,30.09,WNW,292,2.8,10.7,91,0.00,,,0.00,Rainwise IP-100,2013-02-15 13:59:00,
2013-02-15 09:04:00,41.2,39.0,30.10,NNE,22,6.5,8.4,91,0.00,,,0.00,Rainwise IP-100,2013-02-15 14:04:00,
2013-02-15 09:09:00,41.7,39.0,30.10,NNW,337,2.1,8.2,90,0.00,,,0.00,Rainwise IP-100,2013-02-15 14:09:00,
2013-02-15 09:14:00,42.3,39.0,30.10,NNW,337,5.8,7.7,89,0.00,,,0.00,Rainwise IP-100,2013-02-15 14:14:00,
2013-02-15 09:19:00,42.7,40.0,30.10,NNW,337,2.3,9.8,88,0.00,,,0.00,Rainwise IP-100,2013-02-15 14:19:00,
2013-02-15 09:24:00,42.9,40.0,30.10,NW,315,2.8,11.7,88,0.00,,,0.00,Rainwise IP-100,2013-02-15 14:24:00,
2013-02-15 09:29:00,43.1,39.0,30.10,North,360,6.3,10.0,87,0.00,,,0.00,Rainwise IP-100,2013-02-15 14:29:00,
2013-02-15 09:34:00,43.4,39.0,30.10,NW,315,4.2,8.6,86,0.00,,,0.00,Rainwise IP-100,2013-02-15 14:34:00,
2013-02-15 09:39:00,43.6,40.0,30.10,NNW,337,4.4,8.4,86,0.00,,,0.00,Rainwise IP-100,2013-02-15 14:39:00,
2013-02-15 09:44:00,43.6,40.0,30.10,NNW,337,5.6,8.2,85,0.00,,,0.00,Rainwise IP-100,2013-02-15 14:44:00,
2013-02-15 09:49:00,43.5,40.0,30.10,NNW,337,1.4,11.2,85,0.00,,,0.00,Rainwise IP-100,2013-02-15 14:49:00,
2013-02-15 09:54:00,43.4,39.0,30.10,NNW,337,5.4,11.0,85,0.00,,,0.00,Rainwise IP-100,2013-02-15 14:54:00,
2013-02-15 09:59:00,43.7,40.0,30.10,NW,315,4.2,8.4,85,0.00,,,0.00,Rainwise IP-100,2013-02-15 14:59:00,
2013-02-15 10:04:00,43.9,39.0,30.10,NNW,337,3.3,9.8,84,0.00,,,0.00,Rainwise IP-100,2013-02-15 15:04:00,
2013-02-15 10:09:00,43.7,39.0,30.10,NNW,337,4.7,9.1,84,0.00,,,0.00,Rainwise IP-100,2013-02-15 15:09:00,
2013-02-15 10:14:00,43.3,39.0,30.10,North,360,1.4,9.3,84,0.00,,,0.00,Rainwise IP-100,2013-02-15 15:14:00,
2013-02-15 10:19:00,43.3,39.0,30.10,WNW,292,0.0,7.9,84,0.00,,,0.00,Rainwise IP-100,2013-02-15 15:19:00,
2013-02-15 10:24:00,43.8,39.0,30.10,NNW,337,7.2,7.2,84,0.00,,,0.00,Rainwise IP-100,2013-02-15 15:24:00,
2013-02-15 10:29:00,44.6,40.0,30.10,NNW,337,4.0,11.4,83,0.00,,,0.00,Rainwise IP-100,2013-02-15 15:29:00,
2013-02-15 10:34:00,45.4,39.0,30.10,WNW,292,4.7,6.3,81,0.00,,,0.00,Rainwise IP-100,2013-02-15 15:34:00,
2013-02-15 10:39:00,45.7,40.0,30.10,NNE,22,0.0,7.7,80,0.00,,,0.00,Rainwise IP-100,2013-02-15 15:39:00,
2013-02-15 10:44:00,45.6,40.0,30.10,NNE,22,1.4,11.4,80,0.00,,,0.00,Rainwise IP-100,2013-02-15 15:44:00,
2013-02-15 10:49:00,45.4,39.0,30.09,NNW,337,0.0,12.8,80,0.00,,,0.00,Rainwise IP-100,2013-02-15 15:49:00,
2013-02-15 10:54:00,45.5,39.0,30.10,NNW,337,11.9,13.5,79,0.00,,,0.00,Rainwise IP-100,2013-02-15 15:54:00,
2013-02-15 10:59:00,46.0,39.0,30.09,WNW,292,5.8,13.5,79,0.00,,,0.00,Rainwise IP-100,2013-02-15 15:59:00,
2013-02-15 11:04:00,46.2,39.0,30.10,NNE,22,7.7,11.9,78,0.00,,,0.00,Rainwise IP-100,2013-02-15 16:04:00,
2013-02-15 11:09:00,46.3,39.0,30.09,NNE,22,5.4,11.9,77,0.00,,,0.00,Rainwise IP-100,2013-02-15 16:09:00,
2013-02-15 11:14:00,46.3,39.0,30.09,NNE,22,2.1,10.7,77,0.00,,,0.00,Rainwise IP-100,2013-02-15 16:14:00,
2013-02-15 11:19:00,46.7,39.0,30.09,NNE,22,7.7,10.5,76,0.00,,,0.00,Rainwise IP-100,2013-02-15 16:19:00,
2013-02-15 11:24:00,46.9,39.0,30.08,ENE,67,6.1,12.8,75,0.00,,,0.00,Rainwise IP-100,2013-02-15 16:24:00,
2013-02-15 11:29:00,46.6,39.0,30.08,NW,315,2.8,9.3,75,0.00,,,0.00,Rainwise IP-100,2013-02-15 16:29:00,
2013-02-15 11:34:00,46.8,39.0,30.08,ENE,67,4.7,9.8,75,0.00,,,0.00,Rainwise IP-100,2013-02-15 16:34:00,
2013-02-15 11:39:00,47.0,39.0,30.08,NNW,337,4.2,9.1,74,0.00,,,0.00,Rainwise IP-100,2013-02-15 16:39:00,
2013-02-15 11:44:00,47.0,38.0,30.08,NNW,337,5.4,11.2,73,0.00,,,0.00,Rainwise IP-100,2013-02-15 16:44:00,
2013-02-15 11:49:00,47.0,38.0,30.07,North,360,5.4,11.0,73,0.00,,,0.00,Rainwise IP-100,2013-02-15 16:49:00,
2013-02-15 11:54:00,47.2,38.0,30.07,NNE,22,5.4,9.3,73,0.00,,,0.00,Rainwise IP-100,2013-02-15 16:54:00,
2013-02-15 11:59:00,47.2,38.0,30.07,NE,45,2.6,11.7,72,0.00,,,0.00,Rainwise IP-100,2013-02-15 16:59:00,
2013-02-15 12:04:00,47.0,38.0,30.06,ENE,67,1.6,9.6,72,0.00,,,0.00,Rainwise IP-100,2013-02-15 17:04:00,
2013-02-15 12:09:00,47.3,38.0,30.07,NNE,22,5.8,12.1,71,0.00,,,0.00,Rainwise IP-100,2013-02-15 17:09:00,
2013-02-15 12:14:00,47.3,38.0,30.07,NNE,22,0.0,12.8,71,0.00,,,0.00,Rainwise IP-100,2013-02-15 17:14:00,
2013-02-15 12:19:00,47.3,38.0,30.06,NNE,22,5.4,12.8,71,0.00,,,0.00,Rainwise IP-100,2013-02-15 17:19:00,
2013-02-15 12:24:00,47.4,38.0,30.06,ESE,112,6.1,12.8,71,0.00,,,0.00,Rainwise IP-100,2013-02-15 17:24:00,
2013-02-15 12:29:00,47.4,38.0,30.06,NE,45,7.9,10.7,71,0.00,,,0.00,Rainwise IP-100,2013-02-15 17:29:00,
2013-02-15 12:34:00,47.3,38.0,30.06,NW,315,1.4,12.1,71,0.00,,,0.00,Rainwise IP-100,2013-02-15 17:34:00,
2013-02-15 12:39:00,47.4,38.0,30.06,NNW,337,5.6,9.1,70,0.00,,,0.00,Rainwise IP-100,2013-02-15 17:39:00,
2013-02-15 12:44:00,47.5,38.0,30.06,WNW,292,7.2,8.4,70,0.00,,,0.00,Rainwise IP-100,2013-02-15 17:44:00,
2013-02-15 12:49:00,47.0,37.0,30.06,WNW,292,1.9,14.5,70,0.00,,,0.00,Rainwise IP-100,2013-02-15 17:49:00,
2013-02-15 12:54:00,46.6,37.0,30.05,NW,315,2.3,9.3,70,0.00,,,0.00,Rainwise IP-100,2013-02-15 17:54:00,
2013-02-15 12:59:00,46.5,38.0,30.05,WNW,292,5.1,10.5,71,0.00,,,0.00,Rainwise IP-100,2013-02-15 17:59:00,
2013-02-15 13:04:00,46.7,38.0,30.04,NNE,22,7.7,12.4,71,0.00,,,0.00,Rainwise IP-100,2013-02-15 18:04:00,
2013-02-15 13:09:00,46.7,38.0,30.05,NNW,337,2.6,14.2,71,0.00,,,0.00,Rainwise IP-100,2013-02-15 18:09:00,
2013-02-15 13:14:00,46.7,37.0,30.04,North,360,6.5,13.5,70,0.00,,,0.00,Rainwise IP-100,2013-02-15 18:14:00,
2013-02-15 13:19:00,46.8,37.0,30.05,NNE,22,1.4,12.1,70,0.00,,,0.00,Rainwise IP-100,2013-02-15 18:19:00,
2013-02-15 13:24:00,47.1,37.0,30.05,NNE,22,13.8,13.8,70,0.00,,,0.00,Rainwise IP-100,2013-02-15 18:24:00,
2013-02-15 13:29:00,47.1,37.0,30.04,NNW,337,5.1,13.8,69,0.00,,,0.00,Rainwise IP-100,2013-02-15 18:29:00,
2013-02-15 13:34:00,47.1,37.0,30.04,NNW,337,11.0,11.0,69,0.00,,,0.00,Rainwise IP-100,2013-02-15 18:34:00,
2013-02-15 13:39:00,47.0,37.0,30.04,NNW,337,3.7,13.8,69,0.00,,,0.00,Rainwise IP-100,2013-02-15 18:39:00,
2013-02-15 13:44:00,46.8,37.0,30.04,WNW,292,7.5,9.6,69,0.00,,,0.00,Rainwise IP-100,2013-02-15 18:44:00,
2013-02-15 13:49:00,46.7,37.0,30.03,NNW,337,9.3,13.3,69,0.00,,,0.00,Rainwise IP-100,2013-02-15 18:49:00,
2013-02-15 13:54:00,46.7,37.0,30.03,NNW,337,2.3,11.2,68,0.00,,,0.00,Rainwise IP-100,2013-02-15 18:54:00,
2013-02-15 13:59:00,47.1,36.0,30.03,NNE,22,5.1,11.2,67,0.00,,,0.00,Rainwise IP-100,2013-02-15 18:59:00,
2013-02-15 14:04:00,47.3,37.0,30.03,NNW,337,3.0,11.7,66,0.00,,,0.00,Rainwise IP-100,2013-02-15 19:04:00,
2013-02-15 14:09:00,47.3,36.0,30.03,NW,315,1.9,8.6,65,0.00,,,0.00,Rainwise IP-100,2013-02-15 19:09:00,
2013-02-15 14:14:00,47.3,36.0,30.03,North,360,6.8,9.3,64,0.00,,,0.00,Rainwise IP-100,2013-02-15 19:14:00,
2013-02-15 14:19:00,47.3,36.0,30.03,NNW,337,5.6,9.8,63,0.00,,,0.00,Rainwise IP-100,2013-02-15 19:19:00,
2013-02-15 14:24:00,47.3,35.0,30.03,WNW,292,0.0,9.3,62,0.00,,,0.00,Rainwise IP-100,2013-02-15 19:24:00,
2013-02-15 14:29:00,47.3,35.0,30.03,NNW,337,3.7,10.7,61,0.00,,,0.00,Rainwise IP-100,2013-02-15 19:29:00,
2013-02-15 14:34:00,47.1,35.0,30.03,NNW,337,2.1,12.8,62,0.00,,,0.00,Rainwise IP-100,2013-02-15 19:34:00,
2013-02-15 14:39:00,46.8,35.0,30.03,NNW,337,3.5,10.3,63,0.00,,,0.00,Rainwise IP-100,2013-02-15 19:39:00,
2013-02-15 14:44:00,46.4,35.0,30.03,NNE,22,8.6,8.6,64,0.00,,,0.00,Rainwise IP-100,2013-02-15 19:44:00,
2013-02-15 14:49:00,46.0,35.0,30.03,NNE,22,6.5,14.5,65,0.00,,,0.00,Rainwise IP-100,2013-02-15 19:49:00,
2013-02-15 14:54:00,45.8,36.0,30.03,NNE,22,1.2,10.5,67,0.00,,,0.00,Rainwise IP-100,2013-02-15 19:54:00,
2013-02-15 14:59:00,45.5,36.0,30.02,NNW,337,4.2,10.7,68,0.00,,,0.00,Rainwise IP-100,2013-02-15 19:59:00,
2013-02-15 15:04:00,45.3,36.0,30.03,NNW,337,1.2,9.6,69,0.00,,,0.00,Rainwise IP-100,2013-02-15 20:04:00,
2013-02-15 15:09:00,45.4,36.0,30.03,WNW,292,0.0,8.4,69,0.00,,,0.00,Rainwise IP-100,2013-02-15 20:09:00,
2013-02-15 15:14:00,45.6,36.0,30.02,NNE,22,3.5,7.7,69,0.00,,,0.00,Rainwise IP-100,2013-02-15 20:14:00,
2013-02-15 15:19:00,45.7,36.0,30.02,South,180,0.0,9.1,68,0.00,,,0.00,Rainwise IP-100,2013-02-15 20:19:00,
2013-02-15 15:24:00,45.6,36.0,30.02,WSW,247,2.1,5.6,68,0.00,,,0.00,Rainwise IP-100,2013-02-15 20:24:00,
2013-02-15 15:29:00,45.1,36.0,30.02,NNW,337,2.8,7.0,69,0.00,,,0.00,Rainwise IP-100,2013-02-15 20:29:00,
2013-02-15 15:34:00,44.7,36.0,30.02,NNE,22,4.7,9.3,71,0.00,,,0.00,Rainwise IP-100,2013-02-15 20:34:00,
2013-02-15 15:39:00,44.4,36.0,30.03,NNW,337,3.3,10.5,72,0.00,,,0.00,Rainwise IP-100,2013-02-15 20:39:00,
2013-02-15 15:44:00,44.3,36.0,30.02,WNW,292,4.2,10.3,73,0.00,,,0.00,Rainwise IP-100,2013-02-15 20:44:00,
2013-02-15 15:49:00,44.2,36.0,30.02,NNE,22,1.4,9.8,74,0.00,,,0.00,Rainwise IP-100,2013-02-15 20:49:00,
2013-02-15 15:54:00,43.9,36.0,30.02,NNE,22,3.3,8.4,74,0.00,,,0.00,Rainwise IP-100,2013-02-15 20:54:00,
2013-02-15 15:59:00,44.0,36.0,30.01,NNW,337,1.2,9.1,73,0.00,,,0.00,Rainwise IP-100,2013-02-15 20:59:00,
2013-02-15 16:04:00,44.3,36.0,30.02,NNW,337,4.9,10.7,73,0.00,,,0.00,Rainwise IP-100,2013-02-15 21:04:00,
2013-02-15 16:09:00,44.4,36.0,30.02,North,360,1.4,7.5,73,0.00,,,0.00,Rainwise IP-100,2013-02-15 21:09:00,
2013-02-15 16:14:00,44.4,36.0,30.01,NW,315,2.3,6.5,73,0.00,,,0.00,Rainwise IP-100,2013-02-15 21:14:00,
2013-02-15 16:19:00,44.3,36.0,30.02,NNW,337,2.3,8.6,73,0.00,,,0.00,Rainwise IP-100,2013-02-15 21:19:00,
2013-02-15 16:24:00,43.9,36.0,30.02,NNW,337,1.9,6.8,73,0.00,,,0.00,Rainwise IP-100,2013-02-15 21:24:00,
2013-02-15 16:29:00,43.4,36.0,30.02,WNW,292,4.4,4.7,74,0.00,,,0.00,Rainwise IP-100,2013-02-15 21:29:00,
2013-02-15 16:34:00,42.7,36.0,30.02,NNW,337,1.6,4.9,75,0.00,,,0.00,Rainwise IP-100,2013-02-15 21:34:00,
2013-02-15 16:39:00,42.2,36.0,30.02,WNW,292,0.0,4.4,77,0.00,,,0.00,Rainwise IP-100,2013-02-15 21:39:00,
2013-02-15 16:44:00,41.9,36.0,30.02,WNW,292,2.1,5.6,78,0.00,,,0.00,Rainwise IP-100,2013-02-15 21:44:00,
2013-02-15 16:49:00,41.9,36.0,30.02,WNW,292,1.9,5.8,79,0.00,,,0.00,Rainwise IP-100,2013-02-15 21:49:00,
2013-02-15 16:54:00,41.5,37.0,30.02,WNW,292,2.1,6.3,80,0.00,,,0.00,Rainwise IP-100,2013-02-15 21:54:00,
2013-02-15 16:59:00,40.8,36.0,30.02,NW,315,2.8,4.9,81,0.00,,,0.00,Rainwise IP-100,2013-02-15 21:59:00,
2013-02-15 17:04:00,40.3,36.0,30.02,NW,315,2.8,4.2,82,0.00,,,0.00,Rainwise IP-100,2013-02-15 22:04:00,
2013-02-15 17:09:00,40.0,36.0,30.01,WNW,292,1.4,5.1,84,0.00,,,0.00,Rainwise IP-100,2013-02-15 22:09:00,
2013-02-15 17:14:00,39.8,36.0,30.01,WNW,292,2.6,7.5,85,0.00,,,0.00,Rainwise IP-100,2013-02-15 22:14:00,
2013-02-15 17:19:00,39.6,36.0,30.02,NW,315,4.7,6.3,85,0.00,,,0.00,Rainwise IP-100,2013-02-15 22:19:00,
2013-02-15 17:24:00,39.4,36.0,30.02,WNW,292,4.2,8.4,86,0.00,,,0.00,Rainwise IP-100,2013-02-15 22:24:00,
2013-02-15 17:29:00,39.3,36.0,30.01,WNW,292,3.7,6.1,87,0.00,,,0.00,Rainwise IP-100,2013-02-15 22:29:00,
2013-02-15 17:34:00,39.1,36.0,30.02,NW,315,3.5,7.5,88,0.00,,,0.00,Rainwise IP-100,2013-02-15 22:34:00,
2013-02-15 17:39:00,39.0,36.0,30.02,NNW,337,3.7,5.8,88,0.00,,,0.00,Rainwise IP-100,2013-02-15 22:39:00,
2013-02-15 17:44:00,38.7,36.0,30.01,WNW,292,3.0,4.9,89,0.00,,,0.00,Rainwise IP-100,2013-02-15 22:44:00,
2013-02-15 17:49:00,38.5,36.0,30.02,WNW,292,2.6,6.8,89,0.00,,,0.00,Rainwise IP-100,2013-02-15 22:49:00,
2013-02-15 17:54:00,38.4,36.0,30.01,WNW,292,1.6,11.2,90,0.00,,,0.00,Rainwise IP-100,2013-02-15 22:54:00,
2013-02-15 17:59:00,38.3,36.0,30.02,NNW,337,1.4,7.5,91,0.00,,,0.00,Rainwise IP-100,2013-02-15 22:59:00,
2013-02-15 18:04:00,38.3,36.0,30.01,WNW,292,4.9,9.1,91,0.00,,,0.00,Rainwise IP-100,2013-02-15 23:04:00,
2013-02-15 18:09:00,38.3,36.0,30.01,NNW,337,4.4,9.1,92,0.00,,,0.00,Rainwise IP-100,2013-02-15 23:09:00,
2013-02-15 18:14:00,38.3,36.0,30.01,WNW,292,2.3,5.6,92,0.00,,,0.00,Rainwise IP-100,2013-02-15 23:14:00,
2013-02-15 18:19:00,38.1,36.0,30.01,NW,315,2.3,5.1,92,0.00,,,0.00,Rainwise IP-100,2013-02-15 23:19:00,
2013-02-15 18:24:00,38.0,36.0,30.01,NNW,337,2.3,5.6,93,0.00,,,0.00,Rainwise IP-100,2013-02-15 23:24:00,
2013-02-15 18:29:00,37.8,36.0,30.01,NNW,337,3.0,4.4,93,0.00,,,0.00,Rainwise IP-100,2013-02-15 23:29:00,
2013-02-15 18:34:00,37.7,36.0,30.01,WNW,292,2.1,6.5,93,0.00,,,0.00,Rainwise IP-100,2013-02-15 23:34:00,
2013-02-15 18:39:00,37.6,36.0,30.01,WNW,292,2.8,3.3,93,0.00,,,0.00,Rainwise IP-100,2013-02-15 23:39:00,
2013-02-15 18:44:00,37.4,35.0,30.00,NW,315,2.6,5.4,93,0.00,,,0.00,Rainwise IP-100,2013-02-15 23:44:00,
2013-02-15 18:49:00,37.2,36.0,30.01,NW,315,0.0,3.3,94,0.00,,,0.00,Rainwise IP-100,2013-02-15 23:49:00,
2013-02-15 18:54:00,36.9,36.0,30.00,NW,315,1.2,2.6,94,0.00,,,0.00,Rainwise IP-100,2013-02-15 23:54:00,
2013-02-15 18:59:00,36.7,36.0,30.01,NW,315,1.4,2.6,94,0.00,,,0.00,Rainwise IP-100,2013-02-15 23:59:00,
2013-02-15 19:04:00,36.6,36.0,30.01,NW,315,0.0,1.6,95,0.00,,,0.00,Rainwise IP-100,2013-02-16 00:04:00,
2013-02-15 19:09:00,36.5,36.0,30.02,NW,315,0.0,1.2,95,0.00,,,0.00,Rainwise IP-100,2013-02-16 00:09:00,
2013-02-15 19:14:00,36.5,36.0,30.01,NE,45,1.2,4.4,95,0.00,,,0.00,Rainwise IP-100,2013-02-16 00:14:00,
2013-02-15 19:19:00,36.7,36.0,30.01,WNW,292,2.8,4.9,95,0.00,,,0.00,Rainwise IP-100,2013-02-16 00:19:00,
2013-02-15 19:24:00,37.0,36.0,30.01,NNW,337,0.0,4.2,95,0.00,,,0.00,Rainwise IP-100,2013-02-16 00:24:00,
2013-02-15 19:29:00,37.1,36.0,30.02,North,360,0.0,4.2,96,0.00,,,0.00,Rainwise IP-100,2013-02-16 00:29:00,
2013-02-15 19:34:00,36.9,36.0,30.01,NNE,22,0.0,3.0,95,0.00,,,0.00,Rainwise IP-100,2013-02-16 00:34:00,
2013-02-15 19:39:00,36.7,36.0,30.01,North,360,2.8,2.8,95,0.00,,,0.00,Rainwise IP-100,2013-02-16 00:39:00,
2013-02-15 19:44:00,36.9,36.0,30.01,NNW,337,0.0,3.7,95,0.00,,,0.00,Rainwise IP-100,2013-02-16 00:44:00,
2013-02-15 19:49:00,37.1,36.0,30.00,NNW,337,2.6,3.5,96,0.00,,,0.00,Rainwise IP-100,2013-02-16 00:49:00,
2013-02-15 19:54:00,37.2,36.0,30.00,NNW,337,3.7,3.7,96,0.00,,,0.00,Rainwise IP-100,2013-02-16 00:54:00,
2013-02-15 19:59:00,37.3,36.0,30.01,NNW,337,0.0,5.1,95,0.00,,,0.00,Rainwise IP-100,2013-02-16 00:59:00,
2013-02-15 20:04:00,37.1,36.0,30.01,NNW,337,0.0,2.1,95,0.00,,,0.00,Rainwise IP-100,2013-02-16 01:04:00,
2013-02-15 20:09:00,36.8,36.0,30.01,NNE,22,1.4,3.7,95,0.00,,,0.00,Rainwise IP-100,2013-02-16 01:09:00,
2013-02-15 20:14:00,36.8,36.0,30.01,NNE,22,0.0,3.7,95,0.00,,,0.00,Rainwise IP-100,2013-02-16 01:14:00,
2013-02-15 20:19:00,36.9,36.0,30.02,NNE,22,0.0,2.6,96,0.00,,,0.00,Rainwise IP-100,2013-02-16 01:19:00,
2013-02-15 20:24:00,37.1,36.0,30.01,NNE,22,1.6,2.3,96,0.00,,,0.00,Rainwise IP-100,2013-02-16 01:24:00,
2013-02-15 20:29:00,37.2,36.0,30.01,NNW,337,2.3,3.7,96,0.00,,,0.00,Rainwise IP-100,2013-02-16 01:29:00,
2013-02-15 20:34:00,37.4,36.0,30.01,WNW,292,1.4,4.2,96,0.00,,,0.00,Rainwise IP-100,2013-02-16 01:34:00,
2013-02-15 20:39:00,37.6,37.0,30.01,NNW,337,2.3,4.7,96,0.00,,,0.00,Rainwise IP-100,2013-02-16 01:39:00,
2013-02-15 20:44:00,37.8,37.0,30.01,NNW,337,0.0,4.7,95,0.00,,,0.00,Rainwise IP-100,2013-02-16 01:44:00,
2013-02-15 20:49:00,38.0,37.0,30.01,North,360,0.0,5.1,95,0.00,,,0.00,Rainwise IP-100,2013-02-16 01:49:00,
2013-02-15 20:54:00,37.9,37.0,30.01,NW,315,0.0,3.0,95,0.00,,,0.00,Rainwise IP-100,2013-02-16 01:54:00,
2013-02-15 20:59:00,37.9,37.0,30.00,NW,315,1.6,3.5,95,0.00,,,0.00,Rainwise IP-100,2013-02-16 01:59:00,
2013-02-15 21:04:00,38.2,37.0,30.01,WNW,292,1.9,6.1,95,0.00,,,0.00,Rainwise IP-100,2013-02-16 02:04:00,
2013-02-15 21:09:00,38.3,37.0,30.00,NNW,337,2.6,4.4,95,0.00,,,0.00,Rainwise IP-100,2013-02-16 02:09:00,
2013-02-15 21:14:00,38.4,37.0,30.01,NW,315,4.0,4.7,95,0.00,,,0.00,Rainwise IP-100,2013-02-16 02:14:00,
2013-02-15 21:19:00,38.4,37.0,30.00,WNW,292,1.2,5.6,95,0.00,,,0.00,Rainwise IP-100,2013-02-16 02:19:00,
2013-02-15 21:24:00,38.4,37.0,30.00,NNE,22,4.0,4.7,95,0.00,,,0.00,Rainwise IP-100,2013-02-16 02:24:00,
2013-02-15 21:29:00,38.4,37.0,30.00,NNW,337,2.6,4.2,95,0.00,,,0.00,Rainwise IP-100,2013-02-16 02:29:00,
2013-02-15 21:34:00,38.5,38.0,30.00,NNE,22,2.1,6.1,95,0.00,,,0.00,Rainwise IP-100,2013-02-16 02:34:00,
2013-02-15 21:39:00,38.7,38.0,30.00,NW,315,2.1,5.8,95,0.00,,,0.00,Rainwise IP-100,2013-02-16 02:39:00,
2013-02-15 21:44:00,38.8,38.0,30.00,NW,315,4.4,4.9,95,0.00,,,0.00,Rainwise IP-100,2013-02-16 02:44:00,
2013-02-15 21:49:00,38.8,38.0,30.00,NNW,337,0.0,5.4,95,0.00,,,0.00,Rainwise IP-100,2013-02-16 02:49:00,
2013-02-15 21:54:00,38.7,38.0,30.00,NNE,22,0.0,5.4,95,0.00,,,0.00,Rainwise IP-100,2013-02-16 02:54:00,
2013-02-15 21:59:00,38.5,38.0,30.00,NW,315,1.4,3.0,95,0.00,,,0.00,Rainwise IP-100,2013-02-16 02:59:00,
2013-02-15 22:04:00,38.4,37.0,30.00,WNW,292,1.4,3.0,96,0.00,,,0.00,Rainwise IP-100,2013-02-16 03:04:00,
2013-02-15 22:09:00,38.2,37.0,30.00,WNW,292,1.6,3.0,96,0.00,,,0.00,Rainwise IP-100,2013-02-16 03:09:00,
2013-02-15 22:14:00,38.0,37.0,30.00,WNW,292,0.0,2.3,96,0.00,,,0.00,Rainwise IP-100,2013-02-16 03:14:00,
2013-02-15 22:19:00,37.7,37.0,30.00,WNW,292,0.0,2.3,96,0.00,,,0.00,Rainwise IP-100,2013-02-16 03:19:00,
2013-02-15 22:24:00,37.4,36.0,30.00,WNW,292,0.0,1.9,96,0.00,,,0.00,Rainwise IP-100,2013-02-16 03:24:00,
2013-02-15 22:29:00,37.2,36.0,30.00,WNW,292,0.0,1.4,97,0.00,,,0.00,Rainwise IP-100,2013-02-16 03:29:00,
2013-02-15 22:34:00,37.0,36.0,30.00,WNW,292,0.0,0.0,97,0.00,,,0.00,Rainwise IP-100,2013-02-16 03:34:00,
2013-02-15 22:40:00,36.7,36.0,30.00,WNW,292,0.0,0.0,97,0.00,,,0.00,Rainwise IP-100,2013-02-16 03:40:00,
2013-02-15 22:45:00,36.6,36.0,30.00,WNW,292,0.0,0.0,97,0.00,,,0.00,Rainwise IP-100,2013-02-16 03:45:00,
2013-02-15 22:50:00,36.3,35.0,29.99,WNW,292,0.0,0.0,97,0.00,,,0.00,Rainwise IP-100,2013-02-16 03:50:00,
2013-02-15 22:55:00,35.8,35.0,29.99,WNW,292,0.0,0.0,97,0.00,,,0.00,Rainwise IP-100,2013-02-16 03:55:00,
2013-02-15 23:00:00,35.1,33.0,29.99,WNW,292,0.0,0.0,97,0.00,,,0.00,Rainwise IP-100,2013-02-16 04:00:00,
2013-02-15 23:05:00,34.5,33.0,30.00,WNW,292,0.0,0.0,97,0.00,,,0.00,Rainwise IP-100,2013-02-16 04:05:00,
2013-02-15 23:10:00,34.1,33.0,29.99,WNW,292,0.0,0.0,97,0.00,,,0.00,Rainwise IP-100,2013-02-16 04:10:00,
2013-02-15 23:15:00,33.8,33.0,29.99,WNW,292,0.0,0.0,97,0.00,,,0.00,Rainwise IP-100,2013-02-16 04:15:00,
2013-02-15 23:20:00,33.5,33.0,29.98,WNW,292,0.0,0.0,97,0.00,,,0.00,Rainwise IP-100,2013-02-16 04:20:00,
2013-02-15 23:25:00,33.1,33.0,29.99,WNW,292,0.0,0.0,98,0.00,,,0.00,Rainwise IP-100,2013-02-16 04:25:00,
2013-02-15 23:30:00,32.9,33.0,29.99,WNW,292,0.0,0.0,98,0.00,,,0.00,Rainwise IP-100,2013-02-16 04:30:00,
2013-02-15 23:35:00,32.8,33.0,29.99,WNW,292,0.0,0.0,98,0.00,,,0.00,Rainwise IP-100,2013-02-16 04:35:00,
2013-02-15 23:40:00,32.5,33.0,29.98,WNW,292,0.0,0.0,98,0.00,,,0.00,Rainwise IP-100,2013-02-16 04:40:00,
2013-02-15 23:45:00,32.2,32.0,29.99,WNW,292,0.0,0.0,98,0.00,,,0.00,Rainwise IP-100,2013-02-16 04:45:00,
2013-02-15 23:50:00,32.0,32.0,29.99,WNW,292,0.0,0.0,98,0.00,,,0.00,Rainwise IP-100,2013-02-16 04:50:00,
2013-02-15 23:55:00,31.9,32.0,29.98,WNW,292,0.0,0.0,98,0.00,,,0.00,Rainwise IP-100,2013-02-16 04:55:00,